Weather in Cayo Ensenachos

Cuba     22°38′40″N   79°05′18″W
temp.,
°C
wind,
m/s
gust,
m/s
humid.,
%
clouds,
%
prec.,
mm/h
press.,
hPa
HPBL,
m
22 january, sat
sat2201:00+25ese44790 2.3 1017229
04:00+25ese547596 0.3 1016442
07:00+25ese3376100 0.5 1017406
10:00+25ese227830 0.7 1020254
13:00+25ene227491 0.7 1018442
16:00+25nne33743 0.4 1016355
19:00+25nne887597 0.5 1016501
22:00+25nne447392 0.1 1018687
23 january, sun
sun2301:00+25nne557742 1.3 1017544
04:00+25nne557514 0.1 1015806
07:00+24nne547613 0.3 1016743
10:00+24ne547510 0.2 1018714
13:00+24nne447727 0.5 1016693
16:00+24n557612 0.4 1014768
19:00+24nne557513 0.4 1015827
22:00+24n65775 0.7 1016695
24 january, mon
mon2401:00+24nnw557524 2.1 1015772
04:00+24nw667422 0.5 1014889
07:00+24nnw767620 0.8 1015827
10:00+23nnw657497 0.1 1017908
13:00+23nw557498 0.1 1015752
16:00+22nnw54700 0.0 1014731
19:00+22n44680 0.0 1015637
22:00+22n43682 0.0 1015618
25 january, tue
tue2501:00+22n22655 0.0 1014536
04:00+22ne11630 0.0 1013506
07:00+22ese33670 0.0 1014556
10:00+23se55770 0.0 1016586
13:00+24ese33753 0.0 1014418
16:00+25e54755 0.0 1012288
19:00+26ese55780 0.0 1014363
22:00+26ssw44765 0.0 1015569
26 january, wed
wed2601:00+25sw44813 0.0 1015361
04:00+24ssw44842 0.0 1014297
07:00+24ssw44842 0.0 1015318
10:00+24ssw44852 0.0 1017330
13:00+25nw22780 0.0 1015217
16:00+26ne54732 0.0 1013186
19:00+26nne43765 1.0 1015154
22:00+26nne33749 1.7 1016236